This is the latest recevied weather packets stored in our database for station/object KE5VT. If no packets are shown the sender has not sent any weather packets the latest 10 day(s).
| Time | Temp. | Humidity | Pressure | Rain* | Wind** | Luminosity | Snow |
|---|---|---|---|---|---|---|---|
| 1787634944 | 22.22° C | 79% | 1013.9 hPa | 0 mm | - | 0 W/m² | - |
| 1787634644 | 22.22° C | 79% | 1013.9 hPa | 0 mm | - | 0 W/m² | - |
| 1787634340 | 21.67° C | 80% | 1013.7 hPa | 0 mm | - | 0 W/m² | - |
| 1787634036 | 21.67° C | 81% | 1013.9 hPa | 0 mm | - | 0 W/m² | - |
| 1787633731 | 22.22° C | 81% | 1013.8 hPa | 0 mm | - | 0 W/m² | - |
| 1787633427 | 22.22° C | 81% | 1013.6 hPa | 0 mm | - | 0 W/m² | - |
| 1787633123 | 22.22° C | 81% | 1013.6 hPa | 0 mm | - | 0 W/m² | - |
| 1787632820 | 22.22° C | 81% | 1013.6 hPa | 0 mm | - | 0 W/m² | - |
| 1787632514 | 22.22° C | 82% | 1013.4 hPa | 0 mm | - | 0 W/m² | - |
| 1787632209 | 22.22° C | 83% | 1013.6 hPa | 0 mm | - | 0 W/m² | - |
| 1787631903 | 22.22° C | 83% | 1013.5 hPa | 0 mm | - | 0 W/m² | - |
| 1787631600 | 22.22° C | 82% | 1013.5 hPa | 0 mm | - | 0 W/m² | - |
| 1787631296 | 22.78° C | 80% | 1013.4 hPa | 0 mm | - | 0 W/m² | - |
| 1787630996 | 22.78° C | 81% | 1013.5 hPa | 0 mm | - | 0 W/m² | - |
| 1787630691 | 22.78° C | 81% | 1013.5 hPa | 0 mm | - | 0 W/m² | - |
| 1787630390 | 22.78° C | 81% | 1013.5 hPa | 0 mm | - | 0 W/m² | - |
| 1787630086 | 22.78° C | 78% | 1013.5 hPa | 0 mm | - | 0 W/m² | - |
| 1787629783 | 22.78° C | 77% | 1013.6 hPa | 0 mm | - | 0 W/m² | - |
| 1787629482 | 22.78° C | 76% | 1013.4 hPa | 0 mm | - | 0 W/m² | - |
| 1787629179 | 22.22° C | 76% | 1013.5 hPa | 0 mm | - | 0 W/m² | - |
| 1787628878 | 22.22° C | 76% | 1013.6 hPa | 0 mm | - | 0 W/m² | - |
| 1787628574 | 22.78° C | 75% | 1013.4 hPa | 0 mm | - | 0 W/m² | - |
| 1787628269 | 23.33° C | 74% | 1013.5 hPa | 0 mm | - | 0 W/m² | - |
| 1787627966 | 22.78° C | 71% | 1013.4 hPa | 0 mm | - | 0 W/m² | - |
| 1787627666 | 23.33° C | 74% | 1013.6 hPa | 0 mm | - | 0 W/m² | - |
* Rain latest hour (hover to see other rain measurements)
** Current wind speed in m/s (hover to see current wind gust speed)